Regional Weather Roundup
Issued by NWS Sterling, VA

Home | Current Version | Previous Version | Graphics & Text | Print | Product List | Glossary On
Versions: 1 2 3 4 5 6 7 8 9 10 11 12 13 14 15 16 17 18 19 20 21 22 23 24 25 26 27
000
ASUS41 KLWX 010110
RWRLWX

REGIONAL WEATHER ROUNDUP
NATIONAL WEATHER SERVICE BALTIMORE MD/WASHINGTON DC
900 PM EDT FRI SEP 30 2016

Note: "FAIR" indicates few or no clouds below 12,000 feet
with no significant weather and/or obstructions to visibility.
 TC=TEMPERATURE CELSIUS

 * =Non NWS site. Station does not report precipitation (e.g. rain,
    snow, etc.), thunder, or fog.

DCZ001-MDZ009-015-VAZ040>042-051-053>054-010200-
WASHINGTON METRO

CITY           SKY/WX    TMP DP  RH WIND       PRES   REMARKS
WASHINGTON NAT DRIZZLE   65  65 100 NE16      30.12S FOG
DULLES         DRIZZLE   63  61  93 NE14      30.12S FOG
ANDREWS AFB    CLOUDY    64  63  94 E15       30.11R
FT BELVOIR     CLOUDY    65  63  93 VRB3      30.11R
QUANTICO       CLOUDY    67  65  93 E13       30.11R
LEESBURG*      CLOUDY    63  63 100 NE6       30.14S FOG
MANASSAS*      CLOUDY    64  64 100 E5        30.11R FOG
GAITHERSBURG*  CLOUDY    61  57  88 E8        30.16F

$$

MDZ006>007-011-014-010200-
BALTIMORE METRO

CITY           SKY/WX    TMP DP  RH WIND       PRES   REMARKS
BWI AIRPORT    DRIZZLE   63  60  90 NE21G26   30.14S
MD SCIENCE CTR   N/A     64  59  83 MISG      30.15F
MARTIN STATE   CLOUDY    64  63  94 NE6G17    30.17S
ANNAPOLIS      CLOUDY    66  62  87 E10G21    30.15R
FORT MEADE*    CLOUDY    63  61  94 NE12G17   30.16S

$$

MDZ012-015-019>023-010200-
MARYLAND EASTERN SHORE

CITY           SKY/WX    TMP DP  RH WIND       PRES   REMARKS
OCEAN CITY     CLOUDY    68  68 100 NE12      30.11S
SALISBURY      CLOUDY    68  67  96 NE13      30.10F FOG
EASTON*        CLOUDY    64  63  94 E10G22    30.16S FOG

$$

MDZ017>025-010200-
SOUTHERN MARYLAND

CITY           SKY/WX    TMP DP  RH WIND       PRES   REMARKS
PATUXENT RIVER CLOUDY    67  64  90 NE12      30.10R
ST INIGOES     CLOUDY    69  67  93 NE9G18    30.09R
LEONARDTOWN*   CLOUDY    64  63  94 E6        30.12R

$$

MDZ003>005-010200-
NORTH CENTRAL MARYLAND

CITY           SKY/WX    TMP DP  RH WIND       PRES   REMARKS
FREDERICK*     NOT AVBL
HAGERSTOWN APT LGT RAIN  62  56  80 E17       30.15S

$$

MDZ501>502-010200-
WESTERN MARYLAND

CITY           SKY/WX    TMP DP  RH WIND       PRES   REMARKS
OAKLAND*       CLOUDY    50  50 100 E20G28    30.13S FOG
CUMBERLAND*    CLOUDY    57  57 100 CALM      30.22R

$$

VAZ025>031-010200-
SHENANDOAH VALLEY

CITY           SKY/WX    TMP DP  RH WIND       PRES   REMARKS
WINCHESTER*    DRIZZLE   57  57 100 CALM      30.14R
FRONT ROYAL*   CLOUDY    57  57 100 N6        30.13S
LURAY*         CLOUDY   N/A N/A N/A N8        30.12R HAZE
NEW MARKET*    CLOUDY   N/A N/A N/A NE7       30.12R
STAUNTON*      DRIZZLE   57  57  98 N7        30.13S
WAYNESBORO*    CLOUDY    57  56  96 N8        30.12R

$$

WVZ021-048>050-054>055-010200-
EASTERN WEST VIRGINIA PANHANDLE

CITY           SKY/WX    TMP DP  RH WIND       PRES   REMARKS
MARTINSBURG    CLOUDY    57  56  96 N8        30.13S FOG
PETERSBURG*    RAIN      58  56  94 NW3       30.15R

$$

VAZ036>039-050-010200-
CENTRAL FOOTHILLS

CITY           SKY/WX    TMP DP  RH WIND       PRES   REMARKS
CHARLOTTESVILL LGT RAIN  63  60  90 NE9       30.09R FOG
CULPEPER*      DRIZZLE   64  64 100 CALM      30.12R
ORANGE*        DRIZZLE   63  63 100 N3        30.10S
GORDONSVILLE*  CLOUDY    63  63 100 NE7       30.08S FOG
WARRENTON*     DRIZZLE   64  60  86 NE8       30.10R

$$

VAZ055>057-010200-
NORTH AND CENTRAL PIEDMONT

CITY           SKY/WX    TMP DP  RH WIND       PRES   REMARKS
FREDERICKSBRG* CLOUDY    66  66 100 E9        30.09R FOG
STAFFORD*      DRIZZLE   65  65 100 E7        30.14R

$$

NCZ024-NYZ072-PAZ021-071-VAZ022-071-010200-
OTHER REGIONAL OBSERVATIONS

CITY           SKY/WX    TMP DP  RH WIND       PRES   REMARKS
NEW YORK CITY  CLOUDY    57  55  93 NE9       30.29R FOG
PHILADELPHIA   CLOUDY    61  58  90 NE14G22   30.21S
PITTSBURGH     CLOUDY    58  56  93 E14       30.09F
ROANOKE        LGT RAIN  64  63  96 N8        30.07R
RICHMOND       LGT RAIN  70  69  97 NE6       30.05R
RALEIGH        PTCLDY    74  70  87 SE6       30.00R

$$

ANZ530>537-010200-
MARINE OBSERVATIONS

STATION/POSITION TIME  TEMP    WIND        PRES
                       AIR SEA DIR/SP/G
                 (UTC) (F)     (DEG/KT/KT) (MB)
THOMAS PT LIGHT  0100   65 71   60/ 13/ 14 1021.8R
BALT KEY BRIDGE  0036   65      50/ 13/ 17 1020.8F
COVE POINT       0036   66     100/ 19/ 23 1019.7R
LEWISETTA        0036   70 72   90/ 18/ 21 1018.1R
SOLOMONS ISLAND  0042   68 73   70/ 14/ 18   N/A
PINEY POINT      0036          100/ 15/ 18   N/A

$$





USA.gov is the U.S. government's official web portal to all federal, state and local government web resources and services.